Location: Atlanta
(33.7490°N, 84.3880°W)
Time: 03:51:29
(UTC-04:00)

Daily predictions for brighter satellites

Satellite Brightness Start Highest point End
(mag) Time Altitude Azimuth Time Altitude Azimuth Time Altitude Azimuth
NOSS 3-1 (C) 4.1 00:13:12 10° NNW 00:20:54 65° ENE 00:21:03 65° ENE
H-2A R/B 3.6 00:22:52 31° WNW 00:22:52 31° WNW 00:26:32 10° NNW
Cosmos 2369 Rocket 3.5 00:26:50 34° NNE 00:26:50 34° NNE 00:29:56 10° NNE
USA 234 3.9 00:20:34 10° NNE 00:26:50 51° NW 00:30:12 27° W
Terra 4.0 00:35:40 20° WNW 00:35:40 20° WNW 00:37:44 10° NW
CZ-3 Stage 3 4.2 00:12:36 10° W 00:37:01 55° SW 00:37:01 55° SW
Cosmos 1943 Rocket 4.0 00:59:42 24° NNE 00:59:42 24° NNE 01:01:51 10° NNE
Lacrosse 5 4.1 01:04:10 20° NW 01:04:30 20° NW 01:08:15 10° N
ATLAS 2AS CENTAUR R/B 3.3 01:55:35 10° NNW 02:02:08 62° NNW 02:02:08 62° NNW
CZ-2C R/B 4.4 02:12:08 10° N 02:14:39 27° NNW 02:14:39 27° NNW
Cosmos 2227 Rocket 4.0 02:22:56 10° N 02:27:28 24° ENE 02:27:28 24° ENE
Cosmos 1943 Rocket 4.5 02:41:12 15° NW 02:41:12 15° NW 02:43:39 10° NNW
Cosmos 2297 Rocket 3.9 02:44:00 10° N 02:48:38 25° ENE 02:49:22 25° ENE
ATLAS CENTAUR R/B 3.8 02:53:11 25° NE 02:53:11 25° NE 02:55:21 10° NE
SeaSat 1 4.1 02:57:59 31° N 02:57:59 31° N 03:00:38 10° NNW
Cosmos 1464 Rocket 4.3 03:15:30 65° NE 03:15:30 65° NE 03:20:59 10° N
Cosmos 1656 4.3 03:23:42 53° NE 03:23:42 53° NE 03:28:07 10° NNE
Cosmos 1898 Rocket 4.3 03:26:44 10° NNW 03:30:42 49° N 03:30:42 49° N
Cosmos 841 Rocket 4.5 03:33:02 41° ENE 03:33:02 41° ENE 03:37:12 10° NNE
CZ-2D R/B 3.6 03:32:34 10° NE 03:37:08 27° E 03:37:44 26° ESE
Cosmos 1763 Rocket 4.2 03:38:11 50° ENE 03:38:11 50° ENE 03:42:20 10° NNE
Cosmos 1937 Rocket 4.0 03:36:39 10° N 03:41:09 55° NE 03:41:09 55° NE
Cosmos 1513 Rocket 4.4 03:43:32 72° NNW 03:43:32 72° NNW 03:49:03 10° N
Cosmos 1953 4.5 03:47:49 22° E 03:47:49 22° E 03:50:32 10° NE
Cosmos 1697 Rocket 2.7 03:53:03 76° N 03:53:03 76° N 03:58:17 10° NNE
ARIANE 5 R/B 2.8 03:54:36 10° NNE 03:59:43 61° ESE 03:59:43 61° ESE
Cosmos 1980 Rocket 2.3 04:01:23 66° ESE 04:01:32 66° ESE 04:07:09 10° NNE
OAO 1 4.5 04:06:10 81° NNE 04:06:10 81° NNE 04:11:35 10° E
Cosmos-2242 4.0 04:06:27 41° E 04:06:27 41° E 04:10:20 10° NNE
ADEOS 3.7 04:04:22 10° N 04:09:05 61° NW 04:09:05 61° NW
Okean O Rocket 3.9 04:08:12 10° NE 04:11:10 18° E 04:13:02 14° SE
BREEZE-M R/B 4.1 04:05:06 10° NW 04:11:11 85° NE 04:18:36 10° SE
Cosmos 2227 Rocket 3.5 04:06:22 10° NW 04:09:13 27° WNW 04:09:13 27° WNW
Resurs 1-4 Rocket 2.3 04:07:51 10° NNE 04:13:04 62° E 04:13:46 56° SE
BREEZE-M DEB (TANK) 3.0 04:13:41 75° W 04:14:01 81° NW 04:18:00 10° NE
Cosmos 2322 Rocket 3.6 04:12:14 24° SE 04:14:13 30° ESE 04:19:00 10° NE
Cosmos 2034 Rocket 4.4 04:16:45 45° WNW 04:16:45 45° WNW 04:22:37 10° N
Cosmos 1408 Rocket 3.8 04:14:06 10° N 04:18:17 69° ENE 04:18:17 69° ENE
Spot 4 Rocket 4.2 04:15:04 10° N 04:19:57 56° WNW 04:19:57 56° WNW
Cosmos 1766 Rocket 3.6 04:18:37 10° N 04:23:03 73° E 04:23:05 73° E
Nadezhda 4 Rocket 3.9 04:21:25 10° NNW 04:27:34 70° W 04:28:54 54° SSW
IRS-1D 3.3 04:24:53 10° N 04:29:50 72° WNW 04:30:11 69° WSW
ATLAS CENTAUR R/B 3.7 04:29:31 19° NW 04:29:52 19° NW 04:33:23 10° N
SL-16 R/B 2.4 04:27:43 31° SSE 04:30:52 88° ENE 04:37:04 10° NNW
Cosmos 2297 Rocket 3.2 04:27:33 10° NW 04:31:06 31° WNW 04:31:06 31° WNW
Cosmos 1378 4.4 04:35:34 10° NNW 04:37:48 31° NW 04:37:48 31° NW
Cosmos 1470 4.3 04:37:58 23° SE 04:39:31 32° E 04:43:04 10° NNE
Cosmos 1842 Rocket 4.3 04:39:09 33° SSE 04:40:46 51° E 04:45:07 10° NNE
Cosmos 990 Rocket 4.3 04:38:57 10° NNW 04:43:41 46° W 04:43:41 46° W
CZ-2D R/B 3.7 04:41:56 10° NNE 04:46:19 70° E 04:47:36 44° S
SL-16 R/B 2.6 04:45:30 30° S 04:48:12 58° ESE 04:53:45 10° NNE
Cosmos 2360 4.2 04:46:59 47° SW 04:48:35 70° WNW 04:54:18 10° NNE
GPS 2-04 Rocket1 2.8 04:50:41 53° WNW 04:51:30 73° N 04:55:22 10° E
PSLV R/B 4.5 04:48:06 10° NNE 04:51:48 48° E 04:53:02 33° SSE
SL-24 R/B - RUBIN 2 4.2 04:51:12 43° SSW 04:53:13 87° WNW 04:59:30 10° NNE
Cosmos 2026 Rocket 4.0 04:52:07 10° N 04:58:28 82° E 05:04:41 10° S
USA 81 4.0 04:56:04 29° S 04:58:49 90° E 05:04:07 10° N
Cosmos 1634 Rocket 4.2 04:59:33 35° SW 05:01:58 53° W 05:08:06 10° N
Cosmos 332 Rocket 3.7 05:00:31 43° SW 05:01:59 69° WNW 05:06:48 10° NNE
UNKNOWN OBJECT B 3.2 05:04:00 10° N 05:07:39 41° WNW 05:07:58 40° W
CZ-4B R/B 3.6 05:04:34 10° NNE 05:08:17 46° E 05:10:38 19° SSE
Cosmos 2195 Rocket 4.4 05:03:35 10° N 05:09:39 70° W 05:14:58 14° S
MTI 3.7 05:10:03 60° WSW 05:10:13 61° W 05:13:29 10° NNW
Cosmos 1437 2.9 05:10:00 10° NNW 05:13:14 50° W 05:13:16 50° W
DELTA 2 R/B (1) 3.6 05:11:24 32° SW 05:14:00 73° SSE 05:19:35 10° ENE
CZ-4B R/B 3.3 05:08:30 10° NNE 05:14:00 74° ESE 05:18:31 15° S
Cosmos 2151 4.3 05:10:22 10° N 05:14:26 40° E 05:18:27 10° SSE
EO 1 Del DPAF 3.9 05:15:00 34° W 05:15:00 34° W 05:18:26 10° NNW
Milstar 3 Cent rocket 2.7 05:13:35 29° WSW 05:16:11 52° S 05:24:31 10° ESE
CZ-2D R/B 3.1 05:12:22 10° N 05:17:08 32° WNW 05:19:04 25° WSW
NOSS 3-4 (A) 4.4 05:11:03 10° NW 05:17:22 34° WSW 05:23:57 10° S
Cosmos 1733 3.1 05:15:23 26° S 05:17:25 82° E 05:21:13 10° N
NOSS 3-4 (C) 4.4 05:11:09 10° NW 05:17:30 35° WSW 05:24:09 10° S
Cosmos 1805 4.5 05:17:45 25° W 05:17:47 25° WNW 05:21:03 10° NNW
PAYLOAD B 4.3 05:12:38 10° NNE 05:18:16 85° ESE 05:22:57 15° SSW
Delta 128 4.3 05:17:50 31° SSW 05:19:07 38° S 05:23:29 10° ESE
IRS-1C Rocket 4.0 05:14:19 10° N 05:19:33 71° WNW 05:23:01 22° SSW
Cosmos 1125 Rocket 3.6 05:15:08 10° NNW 05:20:12 54° WSW 05:25:14 10° S
ADEOS II 3.8 05:15:54 10° NE 05:20:29 30° E 05:25:01 10° SSE
Cosmos 371 Rocket 3.3 05:18:44 28° SSW 05:21:12 67° WNW 05:26:00 10° N
Cosmos 1544 3.8 05:21:58 33° W 05:22:30 35° W 05:25:52 10° NNW
Cosmos 1953 3.9 05:23:35 20° W 05:23:43 20° WNW 05:26:44 10° NNW
Cosmos 2227 4.2 05:18:34 10° NNW 05:24:13 59° WSW 05:29:50 10° S
ISS -1.6 05:29:47 18° S 05:29:47 18° S 05:30:58 10° SSE
ASTRO E2 4.3 05:29:48 18° S 05:29:48 18° S 05:31:57 10° SSE
Cosmos 1500 Rocket 3.6 05:25:45 10° NNW 05:30:01 54° W 05:33:35 14° SSW
GEOS 3 Rocket 3.6 05:26:48 10° SSE 05:31:57 59° WSW 05:37:05 10° NW
Cosmos 1743 Rocket 4.4 05:31:39 10° NNW 05:35:26 30° W 05:37:19 21° SW
CZ-2C R/B 3.7 05:31:58 10° S 05:36:37 62° W 05:41:13 10° NNW
ARIANE 5 R/B 4.4 05:35:45 10° NW 05:38:16 14° WNW 05:40:03 12° W
CZ-3 R/B 3.4 05:16:58 16° WSW 05:41:58 62° S 05:49:14 10° E
Cosmos 1428 Rocket 4.4 05:36:37 10° NNW 05:42:41 68° W 05:48:42 10° S
Cosmos 2221 2.4 05:40:37 10° S 05:44:52 87° W 05:49:11 10° N
Cosmos 2360 Rocket 2.5 05:40:28 10° S 05:46:02 69° ESE 05:51:38 10° NNE
Cosmos 1980 Rocket 4.0 05:43:10 11° W 05:46:02 15° NW 05:49:18 10° NNW
Okean O Rocket 2.5 05:43:38 10° N 05:47:35 33° WNW 05:50:30 16° SW
Cosmos 1674 3.4 05:48:12 10° NNW 05:51:36 33° W 05:54:59 10° SSW
Resurs 1-4 Rocket 4.0 05:49:43 10° NW 05:52:19 14° WNW 05:54:50 10° W
Abrixas 2.5 05:51:31 10° WNW 05:54:31 55° SW 05:57:31 10° SE
Cosmos 1346 4.3 05:51:36 10° N 05:54:31 44° E 05:57:25 10° SSE
Meteor 2-1 Rocket 4.3 05:50:33 10° S 05:56:14 88° E 06:01:50 10° N
GRACE-1 4.3 05:54:31 11° SSW 05:57:07 42° W 05:59:53 10° NNW
Meteor 1-11 4.4 05:51:47 10° N 05:57:26 79° E 06:03:07 10° S
GRACE-2 4.3 05:54:54 11° SSW 05:57:32 42° W 06:00:19 10° NNW
Cosmos 2322 Rocket 3.1 05:54:04 14° WSW 05:58:08 31° WNW 06:03:04 10° N
Cosmos 1680 Rocket 4.2 05:53:30 10° S 05:58:34 56° ESE 06:03:41 10° NNE
Delta 2 Rocket 4.0 05:56:51 13° SW 05:59:41 37° SSE 06:03:25 10° E
Cosmos 2058 2.9 05:55:40 10° N 05:59:55 90° SE 06:04:07 10° S
Thor Agena Rocket 3.6 05:57:50 10° S 06:02:44 53° W 06:07:40 10° NNW
Cosmos 1437 Rocket 4.3 06:01:42 10° SSE 06:05:12 37° E 06:08:46 10° NNE
RESURS DK-1 3.2 06:02:32 10° NW 06:06:09 29° WSW 06:09:44 10° SSW
Meteor PRIRODA 3.6 06:05:01 10° NNE 06:08:41 90° ESE 06:12:22 10° SSW
Feng Yun 1-1 Rocket 4.2 06:03:55 10° N 06:09:30 80° WNW 06:14:56 10° SSW
PSLV R/B 3.7 06:08:31 10° N 06:12:40 56° WNW 06:16:51 10° SSW
SL-16 R/B 4.3 06:14:17 10° W 06:15:07 10° W 06:15:56 10° W
Cosmos 923 Rocket 4.0 06:11:14 10° SSW 06:16:26 71° WNW 06:21:38 10° NNE
SL-14 R/B 3.2 06:15:58 10° NNW 06:19:51 66° W 06:23:40 10° S
Cosmos 2266 Rocket 4.1 06:19:54 10° NNW 06:25:54 55° W 06:31:59 10° SSW
Cosmos 304 Rocket 4.0 06:21:35 10° SSW 06:26:16 53° WNW 06:30:59 10° N
Cosmos 2219 Rocket 4.0 06:21:54 10° SSE 06:26:47 32° ESE 06:31:40 10° NE
